,,,PA_Meas_PMT16A,,PR_Meas_QMR101_102,,RH_Meas_QMH101,,SR_Meas_QMS101,,TA_Meas_QMH101,,GenWind,,GenWind,
date,time,status,PA,status,PR,status,RH,status,SR,status,TA,status,DirAvg,status,SpdAvg,
2010-02-27, 00:00:04,VALID,1005.51,VALID,0,VALID,84.322,VALID,0.100563,VALID,26.0381,VALID,10,VALID,1.37383,
2010-02-27, 00:01:04,VALID,1005.49,VALID,0,VALID,84.3678,VALID,0.100563,VALID,26.0381,VALID,1,VALID,0.900781,
2010-02-27, 00:02:04,VALID,1005.48,VALID,0,VALID,84.5433,VALID,0.100563,VALID,26.0206,VALID,9,VALID,0.876953,
2010-02-27, 00:03:04,VALID,1005.46,VALID,0,VALID,84.6577,VALID,0,VALID,25.9817,VALID,13,VALID,1.18555,
2010-02-27, 00:04:04,VALID,1005.45,VALID,0,VALID,84.6501,VALID,0.100563,VALID,25.9583,VALID,9,VALID,1.34805,
2010-02-27, 00:05:04,VALID,1005.42,VALID,0,VALID,84.5967,VALID,0,VALID,25.9817,VALID,24,VALID,1.99414,
2010-02-27, 00:06:04,VALID,1005.41,VALID,0,VALID,84.5814,VALID,0.100563,VALID,25.9992,VALID,12,VALID,1.06953,
2010-02-27, 00:07:04,VALID,1005.41,VALID,0,VALID,84.6958,VALID,0,VALID,25.9817,VALID,11,VALID,1.41562,
2010-02-27, 00:08:04,VALID,1005.38,VALID,0,VALID,84.856,VALID,0.100563,VALID,25.9408,VALID,4,VALID,1.0168,
2010-02-27, 00:09:04,VALID,1005.35,VALID,0,VALID,84.9094,VALID,0.100563,VALID,25.9213,VALID,4,VALID,1.03594,
2010-02-27, 00:10:04,VALID,1005.34,VALID,0,VALID,84.9781,VALID,0.100563,VALID,25.8823,VALID,14,VALID,1.5,
2010-02-27, 00:11:04,VALID,1005.33,VALID,0,VALID,85.1002,VALID,0.100563,VALID,25.8823,VALID,1,VALID,0.752344,
2010-02-27, 00:12:04,VALID,1005.29,VALID,0,VALID,85.1154,VALID,0,VALID,25.8629,VALID,23,VALID,1.60508,
2010-02-27, 00:13:04,VALID,1005.27,VALID,0,VALID,85.1307,VALID,0,VALID,25.8414,VALID,15,VALID,0.954687,
2010-02-27, 00:14:04,VALID,1005.27,VALID,0,VALID,85.2375,VALID,0.100563,VALID,25.8629,VALID,14,VALID,0.648047,
2010-02-27, 00:15:04,VALID,1005.25,VALID,0,VALID,85.268,VALID,0.100563,VALID,25.8453,VALID,11,VALID,1.66992,
2010-02-27, 00:16:04,VALID,1005.25,VALID,0,VALID,85.2756,VALID,0.100563,VALID,25.8434,VALID,353,VALID,1.21406,
2010-02-27, 00:17:04,VALID,1005.24,VALID,0,VALID,85.3138,VALID,0.100563,VALID,25.8239,VALID,24,VALID,1.44102,
2010-02-27, 00:18:04,VALID,1005.21,VALID,0,VALID,85.4053,VALID,0.100563,VALID,25.8259,VALID,22,VALID,1.49297,
2010-02-27, 00:19:04,VALID,1005.22,VALID,0,VALID,85.4053,VALID,0.100563,VALID,25.8239,VALID,23,VALID,1.02188,
2010-02-27, 00:20:04,VALID,1005.19,VALID,0,VALID,85.4206,VALID,0.100563,VALID,25.8044,VALID,356,VALID,0.971875,
2010-02-27, 00:21:04,VALID,1005.18,VALID,0,VALID,85.4816,VALID,0.100563,VALID,25.785,VALID,348,VALID,1.03672,
2010-02-27, 00:22:04,VALID,1005.15,VALID,0,VALID,85.6189,VALID,0.100563,VALID,25.7655,VALID,14,VALID,1.50039,
2010-02-27, 00:23:04,VALID,1005.2,VALID,0,VALID,85.6494,VALID,0.100563,VALID,25.7655,VALID,6,VALID,0.736719,
2010-02-27, 00:24:04,VALID,1005.19,VALID,0,VALID,85.6571,VALID,0.100563,VALID,25.748,VALID,344,VALID,0.889063,
2010-02-27, 00:25:04,VALID,1005.18,VALID,0,VALID,85.7944,VALID,0.100563,VALID,25.7071,VALID,355,VALID,1.25469,
2010-02-27, 00:26:04,VALID,1005.18,VALID,0,VALID,85.9393,VALID,0.100563,VALID,25.6876,VALID,351,VALID,0.846094,
2010-02-27, 00:27:04,VALID,1005.17,VALID,0,VALID,86.0538,VALID,0,VALID,25.6681,VALID,356,VALID,1.13594,
2010-02-27, 00:28:04,VALID,1005.13,VALID,0,VALID,86.1758,VALID,0.100563,VALID,25.6681,VALID,360,VALID,0.797266,
2010-02-27, 00:29:04,VALID,1005.13,VALID,0,VALID,86.1835,VALID,0,VALID,25.6292,VALID,2,VALID,0.958984,
2010-02-27, 00:30:04,VALID,1005.12,VALID,0,VALID,86.2826,VALID,0,VALID,25.6506,VALID,341,VALID,1.08164,
2010-02-27, 00:31:04,VALID,1005.11,VALID,0,VALID,86.3284,VALID,0,VALID,25.6311,VALID,14,VALID,1.62656,
2010-02-27, 00:32:04,VALID,1005.07,VALID,0,VALID,86.2598,VALID,0,VALID,25.67,VALID,43,VALID,1.52383,
2010-02-27, 00:33:04,VALID,1005.05,VALID,0,VALID,86.2292,VALID,0,VALID,25.67,VALID,11,VALID,1.17461,
2010-02-27, 00:34:04,VALID,1005.04,VALID,0,VALID,86.2369,VALID,0,VALID,25.67,VALID,23,VALID,1.50586,
2010-02-27, 00:35:04,VALID,1005,VALID,0,VALID,86.2674,VALID,0,VALID,25.6486,VALID,11,VALID,1.04258,
2010-02-27, 00:36:04,VALID,1004.99,VALID,0,VALID,86.275,VALID,0,VALID,25.6506,VALID,353,VALID,0.857031,
2010-02-27, 00:37:04,VALID,1004.98,VALID,0,VALID,86.3132,VALID,0,VALID,25.6506,VALID,20,VALID,1.33008,
2010-02-27, 00:38:04,VALID,1004.97,VALID,0,VALID,86.3132,VALID,0,VALID,25.67,VALID,15,VALID,1.20273,
2010-02-27, 00:39:04,VALID,1004.91,VALID,0,VALID,86.275,VALID,0,VALID,25.67,VALID,4,VALID,1.22656,
2010-02-27, 00:40:04,VALID,1004.89,VALID,0,VALID,86.2979,VALID,0,VALID,25.67,VALID,360,VALID,0.723437,
2010-02-27, 00:41:04,VALID,1004.93,VALID,0,VALID,86.3132,VALID,0,VALID,25.67,VALID,348,VALID,0.979688,
2010-02-27, 00:42:04,VALID,1004.86,VALID,0,VALID,86.336,VALID,0,VALID,25.67,VALID,25,VALID,1.44687,
2010-02-27, 00:43:04,VALID,1004.84,VALID,0,VALID,86.3284,VALID,0,VALID,25.6506,VALID,360,VALID,0.752344,
2010-02-27, 00:44:04,VALID,1004.82,VALID,0,VALID,86.3513,VALID,0,VALID,25.67,VALID,5,VALID,1.49648,
2010-02-27, 00:45:04,VALID,1004.81,VALID,0,VALID,86.0919,VALID,0,VALID,25.6681,VALID,346,VALID,0.880859,
2010-02-27, 00:46:04,VALID,1004.77,VALID,0,VALID,86.2598,VALID,0,VALID,25.6506,VALID,357,VALID,1.2957,
2010-02-27, 00:47:04,VALID,1004.79,VALID,0,VALID,86.3437,VALID,0,VALID,25.6525,VALID,6,VALID,0.977734,
2010-02-27, 00:48:04,VALID,1004.73,VALID,0,VALID,86.4047,VALID,0,VALID,25.6311,VALID,350,VALID,0.720312,
2010-02-27, 00:49:04,VALID,1004.77,VALID,0,VALID,86.5268,VALID,0,VALID,25.5707,VALID,355,VALID,0.848828,
2010-02-27, 00:50:04,VALID,1004.75,VALID,0,VALID,86.5191,VALID,0,VALID,25.5707,VALID,353,VALID,0.794531,
2010-02-27, 00:51:04,VALID,1004.73,VALID,0,VALID,86.5954,VALID,0,VALID,25.5921,VALID,2,VALID,0.987109,
2010-02-27, 00:52:04,VALID,1004.74,VALID,0,VALID,86.6031,VALID,0,VALID,25.5921,VALID,355,VALID,1.13125,
2010-02-27, 00:53:04,VALID,1004.67,VALID,0,VALID,86.542,VALID,0,VALID,25.5707,VALID,360,VALID,0.796484,
2010-02-27, 00:54:04,VALID,1004.67,VALID,0,VALID,86.6793,VALID,0,VALID,25.5513,VALID,350,VALID,0.729688,
2010-02-27, 00:55:04,VALID,1004.66,VALID,0,VALID,86.7633,VALID,0,VALID,25.5337,VALID,346,VALID,0.630078,
2010-02-27, 00:56:04,VALID,1004.63,VALID,0,VALID,86.8472,VALID,0.100563,VALID,25.5142,VALID,355,VALID,0.854297,
2010-02-27, 00:57:04,VALID,1004.61,VALID,0,VALID,87.1142,VALID,0,VALID,25.4734,VALID,360,VALID,0.549219,
2010-02-27, 00:58:04,VALID,1004.6,VALID,0,VALID,87.2057,VALID,0.100563,VALID,25.4325,VALID,355,VALID,0.567187,
2010-02-27, 00:59:04,VALID,1004.59,VALID,0,VALID,87.16,VALID,0,VALID,25.4344,VALID,355,VALID,0.633984,
2010-02-27, 01:00:04,VALID,1004.55,VALID,0,VALID,87.2362,VALID,0.100563,VALID,25.413,VALID,357,VALID,0.742969,
2010-02-27, 01:01:04,VALID,1004.55,VALID,0,VALID,87.2896,VALID,0,VALID,25.4344,VALID,342,VALID,0.862891,
2010-02-27, 01:02:04,VALID,1004.53,VALID,0,VALID,87.282,VALID,0.100563,VALID,25.4149,VALID,352,VALID,0.769531,
2010-02-27, 01:03:04,VALID,1004.51,VALID,0,VALID,87.3583,VALID,0.100563,VALID,25.3955,VALID,335,VALID,0.895312,
2010-02-27, 01:04:04,VALID,1004.47,VALID,0,VALID,87.4651,VALID,0.100563,VALID,25.376,VALID,347,VALID,0.730859,
2010-02-27, 01:05:04,VALID,1004.43,VALID,0,VALID,87.5185,VALID,0.100563,VALID,25.376,VALID,346,VALID,0.733203,
2010-02-27, 01:06:04,VALID,1004.44,VALID,0,VALID,87.4804,VALID,0,VALID,25.376,VALID,349,VALID,0.647656,
2010-02-27, 01:07:04,VALID,1004.42,VALID,0,VALID,87.5109,VALID,0.100563,VALID,25.3955,VALID,341,VALID,0.716406,
2010-02-27, 01:08:04,VALID,1004.41,VALID,0,VALID,87.5719,VALID,0.100563,VALID,25.376,VALID,340,VALID,0.816016,
2010-02-27, 01:09:04,VALID,1004.41,VALID,0,VALID,87.5795,VALID,0,VALID,25.376,VALID,353,VALID,0.504687,
2010-02-27, 01:10:04,VALID,1004.38,VALID,0,VALID,87.6406,VALID,0.100563,VALID,25.3546,VALID,333,VALID,0.822266,
2010-02-27, 01:11:04,VALID,1004.41,VALID,0,VALID,87.6101,VALID,0.100563,VALID,25.376,VALID,335,VALID,0.746484,
2010-02-27, 01:12:04,VALID,1004.36,VALID,0,VALID,87.7092,VALID,0.100563,VALID,25.3546,VALID,294,VALID,0.573828,
2010-02-27, 01:13:04,VALID,1004.32,VALID,0,VALID,87.7474,VALID,0.100563,VALID,25.3565,VALID,343,VALID,0.658594,
2010-02-27, 01:14:04,VALID,1004.31,VALID,0,VALID,87.7626,VALID,0,VALID,25.3584,VALID,345,VALID,0.894531,
2010-02-27, 01:15:04,VALID,1004.3,VALID,0,VALID,87.6406,VALID,0,VALID,25.3779,VALID,349,VALID,0.569141,
2010-02-27, 01:16:04,VALID,1004.29,VALID,0,VALID,87.6635,VALID,0,VALID,25.339,VALID,350,VALID,0.690625,
2010-02-27, 01:17:04,VALID,1004.26,VALID,0,VALID,87.9076,VALID,0,VALID,25.3176,VALID,357,VALID,0.502734,
2010-02-27, 01:18:04,VALID,1004.25,VALID,0,VALID,87.9228,VALID,0,VALID,25.3604,VALID,2,VALID,0.419531,
2010-02-27, 01:19:04,VALID,1004.25,VALID,0,VALID,87.9839,VALID,0,VALID,25.3195,VALID,353,VALID,0.277344,
2010-02-27, 01:20:04,VALID,1004.25,VALID,0,VALID,87.9991,VALID,0,VALID,25.3,VALID,352,VALID,0.407422,
2010-02-27, 01:21:04,VALID,1004.24,VALID,0,VALID,88.1059,VALID,0,VALID,25.3,VALID,308,VALID,0.429297,
2010-02-27, 01:22:04,VALID,1004.24,VALID,0,VALID,88.1059,VALID,0,VALID,25.3195,VALID,284,VALID,1.38047,
2010-02-27, 01:23:04,VALID,1004.23,VALID,0,VALID,88.0602,VALID,0,VALID,25.3,VALID,276,VALID,0.100391,
2010-02-27, 01:24:04,VALID,1004.22,VALID,0,VALID,88.0831,VALID,0,VALID,25.2806,VALID,311,VALID,0.529688,
2010-02-27, 01:25:04,VALID,1004.2,VALID,0,VALID,88.1136,VALID,0,VALID,25.2786,VALID,351,VALID,1.10859,
2010-02-27, 01:26:04,VALID,1004.17,VALID,0,VALID,88.0831,VALID,0,VALID,25.3,VALID,352,VALID,1.01055,
2010-02-27, 01:27:04,VALID,1004.15,VALID,0,VALID,88.1517,VALID,0,VALID,25.2592,VALID,1,VALID,0.564453,
2010-02-27, 01:28:04,VALID,1004.13,VALID,0,VALID,88.167,VALID,0,VALID,25.2397,VALID,351,VALID,0.678516,
2010-02-27, 01:29:04,VALID,1004.08,VALID,0,VALID,88.2356,VALID,0,VALID,25.2416,VALID,349,VALID,0.610156,
2010-02-27, 01:30:04,VALID,1004.06,VALID,0,VALID,88.3272,VALID,0,VALID,25.1813,VALID,337,VALID,0.885938,
2010-02-27, 01:31:04,VALID,1004.04,VALID,0,VALID,88.3882,VALID,0,VALID,25.1832,VALID,354,VALID,0.86875,
2010-02-27, 01:32:04,VALID,1004.01,VALID,0,VALID,88.4264,VALID,0,VALID,25.1832,VALID,353,VALID,0.660156,
2010-02-27, 01:33:04,VALID,1003.99,VALID,0,VALID,88.4416,VALID,0,VALID,25.1423,VALID,353,VALID,0.474609,
2010-02-27, 01:34:04,VALID,1003.95,VALID,0,VALID,88.4645,VALID,0,VALID,25.1248,VALID,353,VALID,0.291797,
2010-02-27, 01:35:04,VALID,1003.95,VALID,0,VALID,88.6094,VALID,0,VALID,25.0839,VALID,355,VALID,0.7125,
2010-02-27, 01:36:04,VALID,1003.91,VALID,0,VALID,88.8459,VALID,0,VALID,25.0663,VALID,322,VALID,0.480078,
2010-02-27, 01:37:04,VALID,1003.87,VALID,0,VALID,88.8765,VALID,0,VALID,25.0255,VALID,327,VALID,0.472266,
2010-02-27, 01:38:04,VALID,1003.86,VALID,0,VALID,89.029,VALID,0,VALID,25.006,VALID,330,VALID,0.460938,
2010-02-27, 01:39:04,VALID,1003.85,VALID,0,VALID,89.1816,VALID,0,VALID,25.0274,VALID,343,VALID,0.580469,
2010-02-27, 01:40:04,VALID,1003.82,VALID,0,VALID,89.1816,VALID,0,VALID,25.0079,VALID,342,VALID,0.488672,
2010-02-27, 01:41:04,VALID,1003.79,VALID,0,VALID,89.2808,VALID,0,VALID,24.9885,VALID,342,VALID,0.253125,
2010-02-27, 01:42:04,VALID,1003.79,VALID,0,VALID,89.2808,VALID,0,VALID,24.9885,VALID,343,VALID,0.357422,
2010-02-27, 01:43:04,VALID,1003.77,VALID,0,VALID,89.2884,VALID,0,VALID,24.969,VALID,343,VALID,0.346484,
2010-02-27, 01:44:04,VALID,1003.78,VALID,0,VALID,89.3494,VALID,0,VALID,24.93,VALID,343,VALID,0.344531,
2010-02-27, 01:45:04,VALID,1003.79,VALID,0,VALID,89.3952,VALID,0,VALID,24.9106,VALID,343,VALID,0.441406,
2010-02-27, 01:46:04,VALID,1003.76,VALID,0,VALID,89.4791,VALID,0,VALID,24.8716,VALID,343,VALID,0.495313,
2010-02-27, 01:47:04,VALID,1003.75,VALID,0,VALID,89.6927,VALID,0,VALID,24.8327,VALID,344,VALID,0.351563,
2010-02-27, 01:48:04,VALID,1003.72,VALID,0,VALID,89.9903,VALID,0,VALID,24.7937,VALID,352,VALID,0.579297,
2010-02-27, 01:49:04,VALID,1003.74,VALID,0,VALID,90.2344,VALID,0,VALID,24.7335,VALID,357,VALID,0.303125,
2010-02-27, 01:50:04,VALID,1003.74,VALID,0,VALID,90.3565,VALID,0,VALID,24.7548,VALID,357,VALID,0.379297,
2010-02-27, 01:51:04,VALID,1003.76,VALID,0,VALID,90.5701,VALID,0,VALID,24.6945,VALID,357,VALID,0.291016,
2010-02-27, 01:52:04,VALID,1003.75,VALID,0,VALID,90.9439,VALID,0,VALID,24.6945,VALID,358,VALID,0.241406,
2010-02-27, 01:53:04,VALID,1003.74,VALID,0,VALID,90.9439,VALID,0,VALID,24.7159,VALID,358,VALID,0.236328,
2010-02-27, 01:54:04,VALID,1003.73,VALID,0,VALID,90.9973,VALID,0,VALID,24.7159,VALID,358,VALID,0.0777344,
2010-02-27, 01:55:04,VALID,1003.72,VALID,0,VALID,90.9286,VALID,0,VALID,24.7372,VALID,358,VALID,0.426562,
2010-02-27, 01:56:04,VALID,1003.76,VALID,0,VALID,90.921,VALID,0,VALID,24.7567,VALID,2,VALID,0.690234,
2010-02-27, 01:57:04,VALID,1003.73,VALID,0,VALID,90.9363,VALID,0,VALID,24.7548,VALID,354,VALID,0.928906,
2010-02-27, 01:58:04,VALID,1003.75,VALID,0,VALID,90.7837,VALID,0,VALID,24.7743,VALID,360,VALID,0.492578,
2010-02-27, 01:59:04,VALID,1003.75,VALID,0,VALID,90.6006,VALID,0,VALID,24.7743,VALID,19,VALID,1.075,
2010-02-27, 02:00:04,VALID,1003.77,VALID,0,VALID,90.4785,VALID,0,VALID,24.7919,VALID,4,VALID,0.452344,
2010-02-27, 02:01:04,VALID,1003.8,VALID,0,VALID,90.3565,VALID,0,VALID,24.7724,VALID,4,VALID,0.304688,
2010-02-27, 02:02:04,VALID,1003.77,VALID,0,VALID,90.4099,VALID,0,VALID,24.7919,VALID,4,VALID,0.489453,
2010-02-27, 02:03:04,VALID,1003.79,VALID,0,VALID,90.4022,VALID,0,VALID,24.7919,VALID,5,VALID,0.332812,
2010-02-27, 02:04:04,VALID,1003.77,VALID,0,VALID,90.4404,VALID,0,VALID,24.8132,VALID,348,VALID,0.627734,
2010-02-27, 02:05:04,VALID,1003.76,VALID,0,VALID,90.3259,VALID,0,VALID,24.8327,VALID,4,VALID,0.839063,
2010-02-27, 02:06:04,VALID,1003.74,VALID,0,VALID,90.1276,VALID,0,VALID,24.8327,VALID,6,VALID,0.557813,
2010-02-27, 02:07:04,VALID,1003.74,VALID,0,VALID,90.2268,VALID,0,VALID,24.8327,VALID,6,VALID,0.476563,
2010-02-27, 02:08:04,VALID,1003.71,VALID,0,VALID,90.0742,VALID,0,VALID,24.8113,VALID,3,VALID,0.492578,
2010-02-27, 02:09:04,VALID,1003.7,VALID,0,VALID,90.1352,VALID,0,VALID,24.7919,VALID,353,VALID,0.520703,
2010-02-27, 02:10:04,VALID,1003.72,VALID,0,VALID,90.1657,VALID,0,VALID,24.8132,VALID,353,VALID,0.524219,
2010-02-27, 02:11:04,VALID,1003.72,VALID,0,VALID,90.2878,VALID,0,VALID,24.7919,VALID,343,VALID,0.432813,
2010-02-27, 02:12:04,VALID,1003.67,VALID,0,VALID,90.3259,VALID,0,VALID,24.8113,VALID,345,VALID,0.706641,
2010-02-27, 02:13:04,VALID,1003.65,VALID,0,VALID,90.1886,VALID,0.100563,VALID,24.8308,VALID,349,VALID,0.566797,
2010-02-27, 02:14:04,VALID,1003.64,VALID,0,VALID,90.0742,VALID,0,VALID,24.8503,VALID,349,VALID,0.468359,
2010-02-27, 02:15:04,VALID,1003.59,VALID,0,VALID,90.0132,VALID,0,VALID,24.8716,VALID,349,VALID,0.529688,
2010-02-27, 02:16:04,VALID,1003.56,VALID,0,VALID,89.8606,VALID,0,VALID,24.8697,VALID,349,VALID,0.180859,
2010-02-27, 02:17:04,VALID,1003.52,VALID,0,VALID,89.9521,VALID,0.100563,VALID,24.8892,VALID,349,VALID,0.30625,
2010-02-27, 02:18:04,VALID,1003.47,VALID,0,VALID,89.8606,VALID,0,VALID,24.8911,VALID,349,VALID,0.528125,
2010-02-27, 02:19:04,VALID,1003.47,VALID,0,VALID,89.769,VALID,0,VALID,24.8697,VALID,349,VALID,0.415625,
2010-02-27, 02:20:04,VALID,1003.46,VALID,0,VALID,89.7767,VALID,0,VALID,24.8716,VALID,349,VALID,0.33125,
2010-02-27, 02:21:04,VALID,1003.45,VALID,0,VALID,89.6012,VALID,0.100563,VALID,24.8716,VALID,349,VALID,0.43125,
2010-02-27, 02:22:04,VALID,1003.47,VALID,0,VALID,89.9598,VALID,0,VALID,24.8308,VALID,357,VALID,0.821094,
2010-02-27, 02:23:04,VALID,1003.43,VALID,0,VALID,89.7385,VALID,0,VALID,24.7919,VALID,357,VALID,0.421094,
2010-02-27, 02:24:04,VALID,1003.41,VALID,0,VALID,89.8377,VALID,0,VALID,24.7919,VALID,357,VALID,0.370703,
2010-02-27, 02:25:04,VALID,1003.41,VALID,0,VALID,89.914,VALID,0,VALID,24.7529,VALID,357,VALID,0.348437,
2010-02-27, 02:26:04,VALID,1003.42,VALID,0,VALID,90.1047,VALID,0,VALID,24.7335,VALID,357,VALID,0.402734,
2010-02-27, 02:27:04,VALID,1003.42,VALID,0,VALID,90.0284,VALID,0,VALID,24.7335,VALID,354,VALID,0.228906,
2010-02-27, 02:28:04,VALID,1003.41,VALID,0,VALID,90.3031,VALID,0,VALID,24.6945,VALID,354,VALID,0.0257812,
2010-02-27, 02:29:04,VALID,1003.41,VALID,0,VALID,90.4404,VALID,0,VALID,24.714,VALID,354,VALID,0.378516,
2010-02-27, 02:30:04,VALID,1003.41,VALID,0,VALID,90.6158,VALID,0,VALID,24.714,VALID,354,VALID,0.477734,
2010-02-27, 02:31:04,VALID,1003.42,VALID,0,VALID,90.387,VALID,0,VALID,24.6945,VALID,354,VALID,0.160156,
2010-02-27, 02:32:04,VALID,1003.42,VALID,0,VALID,90.4099,VALID,0,VALID,24.6556,VALID,354,VALID,0.273047,
2010-02-27, 02:33:04,VALID,1003.43,VALID,0,VALID,90.6998,VALID,0.100563,VALID,24.6556,VALID,337,VALID,0.479688,
2010-02-27, 02:34:04,VALID,1003.42,VALID,0,VALID,90.6769,VALID,0,VALID,24.5953,VALID,333,VALID,0.254687,
2010-02-27, 02:35:04,VALID,1003.44,VALID,0,VALID,90.7913,VALID,0,VALID,24.5972,VALID,333,VALID,0.419922,
2010-02-27, 02:36:04,VALID,1003.45,VALID,0,VALID,90.9363,VALID,0.100563,VALID,24.5777,VALID,333,VALID,0.236328,
2010-02-27, 02:37:04,VALID,1003.42,VALID,0,VALID,91.0812,VALID,0,VALID,24.5582,VALID,333,VALID,0.350391,
2010-02-27, 02:38:04,VALID,1003.42,VALID,0,VALID,91.2414,VALID,0,VALID,24.5582,VALID,333,VALID,0.00742187,
2010-02-27, 02:39:04,VALID,1003.41,VALID,0,VALID,91.3177,VALID,0,VALID,24.5582,VALID,333,VALID,0.384375,
2010-02-27, 02:40:04,VALID,1003.39,VALID,0,VALID,91.4779,VALID,0,VALID,24.5582,VALID,333,VALID,0.147656,
2010-02-27, 02:41:04,VALID,1003.35,VALID,0,VALID,91.4245,VALID,0,VALID,24.5777,VALID,333,VALID,0.334375,
2010-02-27, 02:42:04,VALID,1003.36,VALID,0,VALID,91.3558,VALID,0,VALID,24.5758,VALID,354,VALID,0.557031,
2010-02-27, 02:43:04,VALID,1003.34,VALID,0,VALID,91.333,VALID,0.100563,VALID,24.5758,VALID,336,VALID,0.216016,
2010-02-27, 02:44:04,VALID,1003.35,VALID,0,VALID,91.1804,VALID,0,VALID,24.5777,VALID,336,VALID,0.282031,
2010-02-27, 02:45:04,VALID,1003.36,VALID,0,VALID,91.0278,VALID,0,VALID,24.5582,VALID,339,VALID,0.259766,
2010-02-27, 02:46:04,VALID,1003.39,VALID,0,VALID,91.1346,VALID,0.100563,VALID,24.5388,VALID,339,VALID,0.219141,
2010-02-27, 02:47:04,VALID,1003.35,VALID,0,VALID,91.2262,VALID,0,VALID,24.5193,VALID,339,VALID,0.16875,
2010-02-27, 02:48:04,VALID,1003.39,VALID,0,VALID,91.4474,VALID,0,VALID,24.5388,VALID,358,VALID,0.795703,
2010-02-27, 02:49:04,VALID,1003.38,VALID,0,VALID,91.127,VALID,0,VALID,24.5193,VALID,359,VALID,0.650391,
2010-02-27, 02:50:04,VALID,1003.33,VALID,0,VALID,90.9897,VALID,0.100563,VALID,24.4804,VALID,359,VALID,0.545703,
2010-02-27, 02:51:04,VALID,1003.38,VALID,0,VALID,91.2109,VALID,0,VALID,24.4414,VALID,359,VALID,0.526953,
2010-02-27, 02:52:04,VALID,1003.37,VALID,0,VALID,91.3787,VALID,0.100563,VALID,24.383,VALID,359,VALID,0.408594,
2010-02-27, 02:53:04,VALID,1003.39,VALID,0,VALID,91.5008,VALID,0,VALID,24.3654,VALID,359,VALID,0.246875,
2010-02-27, 02:54:04,VALID,1003.38,VALID,0,VALID,91.7373,VALID,0,VALID,24.3441,VALID,359,VALID,0.377344,
2010-02-27, 02:55:04,VALID,1003.4,VALID,0,VALID,92.0043,VALID,0,VALID,24.3246,VALID,359,VALID,0.378125,
2010-02-27, 02:56:04,VALID,1003.39,VALID,0,VALID,92.1492,VALID,0,VALID,24.3654,VALID,359,VALID,0.247266,
2010-02-27, 02:57:04,VALID,1003.38,VALID,0,VALID,92.2561,VALID,0,VALID,24.383,VALID,358,VALID,0.700781,
2010-02-27, 02:58:04,VALID,1003.41,VALID,0,VALID,92.2866,VALID,0,VALID,24.4414,VALID,330,VALID,0.306641,
2010-02-27, 02:59:04,VALID,1003.37,VALID,0,VALID,92.0958,VALID,0,VALID,24.4609,VALID,330,VALID,0.321094,
2010-02-27, 03:00:04,VALID,1003.37,VALID,0,VALID,91.9051,VALID,0,VALID,24.5212,VALID,330,VALID,0.391797,
2010-02-27, 03:01:04,VALID,1003.38,VALID,0,VALID,91.5847,VALID,0,VALID,24.4998,VALID,330,VALID,0.197266,
2010-02-27, 03:02:04,VALID,1003.37,VALID,0,VALID,91.5771,VALID,0.100563,VALID,24.5193,VALID,333,VALID,0.573828,
2010-02-27, 03:03:04,VALID,1003.36,VALID,0,VALID,91.5466,VALID,0.100563,VALID,24.5193,VALID,335,VALID,0.390625,
2010-02-27, 03:04:04,VALID,1003.34,VALID,0,VALID,91.2262,VALID,0.100563,VALID,24.5193,VALID,335,VALID,0.323438,
2010-02-27, 03:05:04,VALID,1003.35,VALID,0,VALID,91.2796,VALID,0.100563,VALID,24.4998,VALID,335,VALID,0.370703,
2010-02-27, 03:06:04,VALID,1003.32,VALID,0,VALID,91.2719,VALID,0.100563,VALID,24.4998,VALID,335,VALID,0.517969,
2010-02-27, 03:07:04,VALID,1003.3,VALID,0,VALID,91.2262,VALID,0.100563,VALID,24.4609,VALID,335,VALID,0.517187,
2010-02-27, 03:08:04,VALID,1003.27,VALID,0,VALID,91.5542,VALID,0,VALID,24.422,VALID,335,VALID,0.5375,
2010-02-27, 03:09:04,VALID,1003.29,VALID,0,VALID,91.5695,VALID,0,VALID,24.383,VALID,335,VALID,0.430078,
2010-02-27, 03:10:04,VALID,1003.31,VALID,0,VALID,91.6763,VALID,0.100563,VALID,24.3636,VALID,340,VALID,0.622656,
2010-02-27, 03:11:04,VALID,1003.28,VALID,0,VALID,91.7831,VALID,0.100563,VALID,24.3052,VALID,340,VALID,0.473047,
2010-02-27, 03:12:04,VALID,1003.29,VALID,0,VALID,91.9814,VALID,0.100563,VALID,24.2857,VALID,340,VALID,0.507422,
2010-02-27, 03:13:04,VALID,1003.28,VALID,0,VALID,92.1721,VALID,0.100563,VALID,24.2857,VALID,341,VALID,0.416406,
2010-02-27, 03:14:04,VALID,1003.28,VALID,0,VALID,92.3705,VALID,0.100563,VALID,24.2644,VALID,344,VALID,0.523438,
2010-02-27, 03:15:04,VALID,1003.27,VALID,0,VALID,92.4544,VALID,0.100563,VALID,24.3052,VALID,339,VALID,0.700391,
2010-02-27, 03:16:04,VALID,1003.26,VALID,0,VALID,92.4697,VALID,0.100563,VALID,24.3246,VALID,343,VALID,0.781641,
2010-02-27, 03:17:04,VALID,1003.25,VALID,0,VALID,92.3705,VALID,0,VALID,24.3636,VALID,343,VALID,0.584766,
2010-02-27, 03:18:04,VALID,1003.25,VALID,0,VALID,92.2942,VALID,0.100563,VALID,24.383,VALID,343,VALID,0.544141,
2010-02-27, 03:19:04,VALID,1003.26,VALID,0,VALID,92.3095,VALID,0.100563,VALID,24.4201,VALID,349,VALID,0.739844,
2010-02-27, 03:20:04,VALID,1003.23,VALID,0,VALID,92.1874,VALID,0.100563,VALID,24.4998,VALID,346,VALID,0.714844,
2010-02-27, 03:21:04,VALID,1003.23,VALID,0,VALID,91.9204,VALID,0.100563,VALID,24.5796,VALID,349,VALID,0.552344,
2010-02-27, 03:22:04,VALID,1003.28,VALID,0,VALID,91.5466,VALID,0.100563,VALID,24.5582,VALID,330,VALID,0.8625,
2010-02-27, 03:23:04,VALID,1003.27,VALID,0,VALID,91.2872,VALID,0.100563,VALID,24.6166,VALID,360,VALID,0.341797,
2010-02-27, 03:24:04,VALID,1003.3,VALID,0,VALID,91.1041,VALID,0,VALID,24.675,VALID,338,VALID,0.473828,
2010-02-27, 03:25:04,VALID,1003.29,VALID,0,VALID,90.921,VALID,0,VALID,24.714,VALID,359,VALID,1.07422,
2010-02-27, 03:26:04,VALID,1003.29,VALID,0,VALID,90.5396,VALID,0.100563,VALID,24.751,VALID,339,VALID,0.830469,
2010-02-27, 03:27:04,VALID,1003.31,VALID,0,VALID,89.9826,VALID,0.100563,VALID,24.8113,VALID,331,VALID,0.586719,
2010-02-27, 03:28:04,VALID,1003.31,VALID,0,VALID,89.6088,VALID,0.100563,VALID,24.8697,VALID,354,VALID,0.625,
2010-02-27, 03:29:04,VALID,1003.31,VALID,0,VALID,89.2503,VALID,0,VALID,24.9087,VALID,350,VALID,1.39883,
2010-02-27, 03:30:04,VALID,1003.36,VALID,0,VALID,88.8383,VALID,0.100563,VALID,24.9885,VALID,355,VALID,0.835156,
2010-02-27, 03:31:04,VALID,1003.39,VALID,0,VALID,88.5103,VALID,0.100563,VALID,25.006,VALID,348,VALID,0.836328,
2010-02-27, 03:32:04,VALID,1003.4,VALID,0,VALID,88.3653,VALID,0.100563,VALID,25.0041,VALID,359,VALID,0.501562,
2010-02-27, 03:33:04,VALID,1003.43,VALID,0,VALID,88.3348,VALID,0.100563,VALID,25.006,VALID,355,VALID,1.075,
2010-02-27, 03:34:04,VALID,1003.47,VALID,0,VALID,88.4111,VALID,0.100563,VALID,24.9866,VALID,352,VALID,0.732422,
2010-02-27, 03:35:04,VALID,1003.45,VALID,0,VALID,88.3424,VALID,0.100563,VALID,24.9866,VALID,346,VALID,0.948047,
2010-02-27, 03:36:04,VALID,1003.48,VALID,0,VALID,88.2814,VALID,0,VALID,24.9866,VALID,347,VALID,0.869141,
2010-02-27, 03:37:04,VALID,1003.49,VALID,0,VALID,88.1899,VALID,0,VALID,25.0274,VALID,356,VALID,0.703906,
2010-02-27, 03:38:04,VALID,1003.51,VALID,0,VALID,88.1136,VALID,0,VALID,25.0255,VALID,342,VALID,0.466406,
2010-02-27, 03:39:04,VALID,1003.53,VALID,0,VALID,88.0983,VALID,0.100563,VALID,25.006,VALID,342,VALID,0.482812,
2010-02-27, 03:40:04,VALID,1003.53,VALID,0,VALID,88.0678,VALID,0.100563,VALID,25.0255,VALID,351,VALID,0.944141,